Starlink 5602

operational
NORAD ID: 55743 Int'l Des: 2023-028 Owner: SPXS Country: US Constellation: starlink
LEOCIRCULAR

Über Starlink 5602

Beschreibung wird geladen...

Live-Position

3D-Globus wird geladen...

Nächste Überflüge

Höhenverlauf

Altitude vs Time

uPlot chart will show altitude changes over time

Zweizeiliger Elementsatz

1 55743U 23028C 25306.42925593 -.00001213 00000-0 -93844-4 0 9995
2 55743 69.9993 205.4911 0002771 269.0634 91.0207 14.98333697146979
Epoch: 2. Nov. 2025 • Age: 26 hours

Aktueller Status

Höhe 575.6 km
Geschwindigkeit 7.58 km/s
Subsatellitenpunkt 26.77°N, 140.01°E
Startdatum 3. März 2023
Alter 2.6 years
Typ internet

Technische Details

Klassifizierung Payload
Masse 305.00 kg
Trockenmasse 290.00 kg
Gesamtmasse 305.00 kg
Länge 0.20 m
Durchmesser 2.80 m
Spannweite 9.00 m
Form Box + pan
Hersteller SPXS
Bus-Typ Starlink
Phasenstatus In Orbit
Besitzer/Staat SPXS/US

Große Konstellationen

Loading constellations...